Tracking 17154 objects as of 2-August-2015
HD Live streaming from Space Station

BREEZE-M R/B

Track BREEZE-M R/B now!
BREEZE-M R/B is classified as:


NORAD ID: 28925
Int'l Code: 2005-052B
Perigee: 6,218.4 km
Apogee: 35,323.5 km
Inclination: 19.2 °
Period: 741.7 minutes
Semi major axis: 27141 km
RCS: 0.6439 m2 (medium)
Launch date: December 29, 2005
Source: Commonwealth of Independent States (former USSR) (CIS)

Note: This is a ROCKET BODY
Your satellite tracking list
Your tracking list is empty





NASA's NSSDC Master Catalog

Two Line Element Set (TLE):
1 28925U 05052B   15212.54545808 -.00000042  00000-0  00000+0 0  9994
2 28925 019.1884 079.2103 5361637 053.3797 314.8753 01.94151652 67992

Source of the keplerian elements: AFSPC

N2YO: 257